GLO9208 SBEG-SWPI

Flight info

Callsign GLO9208
Flight time 0h 44m
Altitude 27000
Route MALPU DCT MOPLI
Aircraft B733/M-SDE2E3FHIRW/S

Departure

Time 2026-04-21 15:32
Airport Eduardo Gomes International Airport (SBEG)

Arrival

Time 2026-04-21 16:17
Airport Parintins Airport (SWPI)
Time Latitude Longitude Altitude Speed Heading
2026-04-21 14:49 -3.03273 -60.04581 268 ft 0 kts 357°
2026-04-21 15:24 -3.03281 -60.04581 268 ft 2 kts 357°
2026-04-21 15:25 -3.03296 -60.04580 268 ft 2 kts 357°
2026-04-21 15:25 -3.03311 -60.04582 268 ft 2 kts 26°
2026-04-21 15:25 -3.03323 -60.04591 268 ft 2 kts 50°
2026-04-21 15:25 -3.03330 -60.04604 268 ft 2 kts 76°
2026-04-21 15:26 -3.03331 -60.04611 268 ft 1 kts 90°
2026-04-21 15:26 -3.03331 -60.04615 268 ft 0 kts 86°
2026-04-21 15:29 -3.03332 -60.04599 268 ft 5 kts 92°
2026-04-21 15:29 -3.03333 -60.04556 268 ft 6 kts 91°
2026-04-21 15:29 -3.03335 -60.04508 268 ft 7 kts 91°
2026-04-21 15:29 -3.03334 -60.04458 268 ft 7 kts 85°
2026-04-21 15:30 -3.03345 -60.04401 268 ft 13 kts 127°
2026-04-21 15:30 -3.03466 -60.04340 268 ft 21 kts 151°
2026-04-21 15:30 -3.03583 -60.04207 268 ft 32 kts 114°
2026-04-21 15:30 -3.03645 -60.03992 268 ft 31 kts 106°
2026-04-21 15:31 -3.03705 -60.03809 268 ft 22 kts 122°
2026-04-21 15:31 -3.03770 -60.03769 268 ft 6 kts 171°
2026-04-21 15:31 -3.03817 -60.03767 268 ft 9 kts 183°
2026-04-21 15:31 -3.03867 -60.03926 268 ft 54 kts 272°
2026-04-21 15:32 -3.03864 -60.04649 271 ft 156 kts 271°
2026-04-21 15:32 -3.03859 -60.05954 848 ft 211 kts 271°
2026-04-21 15:32 -3.03868 -60.07421 2218 ft 222 kts 269°
2026-04-21 15:32 -3.03782 -60.08879 3700 ft 223 kts 284°
2026-04-21 15:33 -3.03002 -60.10188 5042 ft 227 kts 318°
2026-04-21 15:33 -3.01733 -60.11028 6396 ft 226 kts 341°
2026-04-21 15:33 -3.00247 -60.11124 7726 ft 222 kts 14°
2026-04-21 15:33 -2.98962 -60.10388 8991 ft 221 kts 45°
2026-04-21 15:34 -2.97980 -60.09185 9785 ft 234 kts 51°
2026-04-21 15:34 -2.96938 -60.07854 9956 ft 251 kts 51°
2026-04-21 15:34 -2.95845 -60.06463 9968 ft 257 kts 51°
2026-04-21 15:34 -2.94740 -60.05059 9969 ft 255 kts 51°
2026-04-21 15:35 -2.93638 -60.03656 9970 ft 254 kts 51°
2026-04-21 15:35 -2.92540 -60.02257 9970 ft 255 kts 51°
2026-04-21 15:35 -2.91439 -60.00856 9969 ft 256 kts 51°
2026-04-21 15:35 -2.90296 -59.99406 10441 ft 277 kts 51°
2026-04-21 15:36 -2.89160 -59.97939 11742 ft 272 kts 55°
2026-04-21 15:36 -2.88501 -59.96190 12879 ft 274 kts 85°
2026-04-21 15:36 -2.88727 -59.94333 13901 ft 277 kts 102°
2026-04-21 15:36 -2.89104 -59.92459 14965 ft 277 kts 98°
2026-04-21 15:37 -2.89370 -59.90581 15939 ft 279 kts 96°
2026-04-21 15:37 -2.89584 -59.88679 16897 ft 281 kts 95°
2026-04-21 15:37 -2.89781 -59.86724 17830 ft 284 kts 94°
2026-04-21 15:37 -2.89967 -59.84774 18727 ft 287 kts 94°
2026-04-21 15:38 -2.90152 -59.82785 19570 ft 292 kts 94°
2026-04-21 15:38 -2.90336 -59.80773 20426 ft 295 kts 94°
2026-04-21 15:38 -2.90520 -59.78734 21237 ft 299 kts 94°
2026-04-21 15:38 -2.90707 -59.76666 22029 ft 302 kts 94°
2026-04-21 15:39 -2.90896 -59.74574 22835 ft 305 kts 94°
2026-04-21 15:39 -2.91085 -59.72467 23562 ft 310 kts 94°
2026-04-21 15:39 -2.91279 -59.70322 24331 ft 313 kts 94°
2026-04-21 15:39 -2.91476 -59.68121 24809 ft 323 kts 95°
2026-04-21 15:40 -2.91678 -59.65874 24938 ft 323 kts 95°
2026-04-21 15:40 -2.91877 -59.63654 24952 ft 319 kts 95°
2026-04-21 15:40 -2.92073 -59.61474 24954 ft 316 kts 95°
2026-04-21 15:40 -2.92271 -59.59271 24956 ft 315 kts 95°
2026-04-21 15:41 -2.92467 -59.57088 24955 ft 316 kts 95°
2026-04-21 15:41 -2.92652 -59.55018 24953 ft 303 kts 95°
2026-04-21 15:41 -2.92834 -59.52987 24953 ft 288 kts 94°
2026-04-21 15:41 -2.93009 -59.51031 24955 ft 277 kts 94°
2026-04-21 15:42 -2.93181 -59.49103 24957 ft 279 kts 95°
2026-04-21 15:42 -2.93354 -59.47165 24957 ft 283 kts 95°
2026-04-21 15:42 -2.93531 -59.45180 24956 ft 285 kts 94°
2026-04-21 15:42 -2.93707 -59.43216 24956 ft 283 kts 95°
2026-04-21 15:43 -2.93880 -59.41286 24956 ft 282 kts 94°
2026-04-21 15:43 -2.94056 -59.39320 24957 ft 283 kts 95°
2026-04-21 15:43 -2.94231 -59.37355 24956 ft 284 kts 94°
2026-04-21 15:43 -2.94405 -59.35412 24957 ft 283 kts 95°
2026-04-21 15:44 -2.94581 -59.33447 24958 ft 283 kts 95°
2026-04-21 15:44 -2.94700 -59.31476 24958 ft 283 kts 90°
2026-04-21 15:44 -2.94643 -59.29527 24958 ft 282 kts 87°
2026-04-21 15:44 -2.94550 -59.27560 24958 ft 283 kts 87°
2026-04-21 15:45 -2.94463 -59.25579 24958 ft 283 kts 88°
2026-04-21 15:45 -2.94386 -59.23627 24959 ft 282 kts 88°
2026-04-21 15:45 -2.94311 -59.21663 24959 ft 282 kts 88°
2026-04-21 15:45 -2.94238 -59.19713 24958 ft 283 kts 88°
2026-04-21 15:46 -2.94167 -59.17756 24958 ft 283 kts 88°
2026-04-21 15:46 -2.94095 -59.15794 24957 ft 282 kts 88°
2026-04-21 15:46 -2.94025 -59.13845 24959 ft 282 kts 88°
2026-04-21 15:46 -2.93954 -59.11889 24957 ft 282 kts 88°
2026-04-21 15:47 -2.93883 -59.09906 24958 ft 282 kts 88°
2026-04-21 15:47 -2.93813 -59.07961 24957 ft 282 kts 88°
2026-04-21 15:47 -2.93741 -59.05991 24958 ft 283 kts 88°
2026-04-21 15:47 -2.93671 -59.04048 24957 ft 283 kts 88°
2026-04-21 15:48 -2.93600 -59.02087 24956 ft 282 kts 88°
2026-04-21 15:48 -2.93529 -59.00120 24956 ft 282 kts 88°
2026-04-21 15:48 -2.93458 -58.98166 24957 ft 283 kts 88°
2026-04-21 15:48 -2.93388 -58.96213 24956 ft 282 kts 88°
2026-04-21 15:49 -2.93316 -58.94241 24957 ft 282 kts 88°
2026-04-21 15:49 -2.93245 -58.92284 24958 ft 283 kts 88°
2026-04-21 15:49 -2.93175 -58.90337 24958 ft 282 kts 88°
2026-04-21 15:49 -2.93103 -58.88367 24958 ft 282 kts 88°
2026-04-21 15:50 -2.93033 -58.86415 24958 ft 283 kts 88°
2026-04-21 15:50 -2.92962 -58.84463 24958 ft 282 kts 88°
2026-04-21 15:50 -2.92890 -58.82498 24960 ft 281 kts 88°
2026-04-21 15:50 -2.92819 -58.80531 24960 ft 282 kts 88°
2026-04-21 15:51 -2.92748 -58.78574 24960 ft 282 kts 88°
2026-04-21 15:51 -2.92678 -58.76642 24961 ft 281 kts 88°
2026-04-21 15:51 -2.92606 -58.74670 24961 ft 282 kts 88°
2026-04-21 15:51 -2.92534 -58.72702 24960 ft 282 kts 88°
2026-04-21 15:52 -2.92463 -58.70763 24960 ft 281 kts 88°
2026-04-21 15:52 -2.92392 -58.68819 24957 ft 281 kts 88°
2026-04-21 15:52 -2.92322 -58.66870 24959 ft 282 kts 88°
2026-04-21 15:52 -2.92250 -58.64900 24965 ft 290 kts 88°
2026-04-21 15:53 -2.92173 -58.62788 24964 ft 318 kts 88°
2026-04-21 15:53 -2.92089 -58.60475 24960 ft 346 kts 88°
2026-04-21 15:53 -2.91999 -58.57992 24958 ft 372 kts 88°
2026-04-21 15:53 -2.91901 -58.55335 24958 ft 389 kts 88°
2026-04-21 15:54 -2.91803 -58.52618 24955 ft 388 kts 88°
2026-04-21 15:54 -2.91705 -58.49948 24956 ft 386 kts 88°
2026-04-21 15:54 -2.91607 -58.47272 24954 ft 385 kts 88°
2026-04-21 15:54 -2.91509 -58.44596 24954 ft 386 kts 88°
2026-04-21 15:55 -2.91411 -58.41928 24955 ft 385 kts 88°
2026-04-21 15:55 -2.91313 -58.39258 24955 ft 384 kts 88°
2026-04-21 15:55 -2.91214 -58.36573 24953 ft 385 kts 88°
2026-04-21 15:55 -2.91092 -58.33911 24952 ft 384 kts 86°
2026-04-21 15:56 -2.90885 -58.31235 24952 ft 386 kts 85°
2026-04-21 15:56 -2.90653 -58.28574 24951 ft 385 kts 85°
2026-04-21 15:56 -2.90422 -58.25910 24951 ft 385 kts 85°
2026-04-21 15:56 -2.90195 -58.23243 24825 ft 379 kts 85°
2026-04-21 15:57 -2.89979 -58.20655 24578 ft 367 kts 85°
2026-04-21 15:57 -2.89772 -58.18145 24333 ft 358 kts 85°
2026-04-21 15:57 -2.89571 -58.15683 24091 ft 357 kts 85°
2026-04-21 15:57 -2.89371 -58.13214 23845 ft 359 kts 85°
2026-04-21 15:58 -2.89171 -58.10734 23603 ft 359 kts 85°
2026-04-21 15:58 -2.88970 -58.08235 23361 ft 358 kts 85°
2026-04-21 15:58 -2.88773 -58.05781 23119 ft 355 kts 85°
2026-04-21 15:58 -2.88576 -58.03316 22872 ft 354 kts 85°
2026-04-21 15:59 -2.88380 -58.00876 22581 ft 352 kts 85°
2026-04-21 15:59 -2.88186 -57.98465 22171 ft 347 kts 85°
2026-04-21 15:59 -2.87994 -57.96069 21723 ft 342 kts 85°
2026-04-21 15:59 -2.87806 -57.93724 21277 ft 338 kts 85°
2026-04-21 16:00 -2.87621 -57.91409 20834 ft 335 kts 85°
2026-04-21 16:00 -2.87435 -57.89090 20389 ft 331 kts 85°
2026-04-21 16:00 -2.87252 -57.86813 19951 ft 327 kts 85°
2026-04-21 16:00 -2.87071 -57.84562 19516 ft 324 kts 85°
2026-04-21 16:01 -2.86894 -57.82346 19089 ft 320 kts 85°
2026-04-21 16:01 -2.86716 -57.80138 18671 ft 317 kts 85°
2026-04-21 16:01 -2.86542 -57.77974 18254 ft 314 kts 85°
2026-04-21 16:01 -2.86367 -57.75795 17834 ft 311 kts 85°
2026-04-21 16:02 -2.86195 -57.73660 17421 ft 315 kts 85°
2026-04-21 16:02 -2.86016 -57.71439 16996 ft 327 kts 85°
2026-04-21 16:02 -2.85833 -57.69154 16552 ft 329 kts 85°
2026-04-21 16:02 -2.85651 -57.66886 16108 ft 325 kts 85°
2026-04-21 16:03 -2.85473 -57.64664 15674 ft 321 kts 85°
2026-04-21 16:03 -2.85295 -57.62451 15243 ft 317 kts 85°
2026-04-21 16:03 -2.85121 -57.60283 14825 ft 313 kts 85°
2026-04-21 16:03 -2.84947 -57.58123 14405 ft 310 kts 85°
2026-04-21 16:04 -2.84776 -57.56000 14001 ft 308 kts 85°
2026-04-21 16:04 -2.84605 -57.53869 13566 ft 305 kts 85°
2026-04-21 16:04 -2.84424 -57.51760 13154 ft 302 kts 82°
2026-04-21 16:04 -2.83883 -57.49759 12744 ft 297 kts 69°
2026-04-21 16:05 -2.83108 -57.47856 12382 ft 294 kts 67°
2026-04-21 16:05 -2.82337 -57.45998 12001 ft 291 kts 67°
2026-04-21 16:05 -2.81563 -57.44122 11619 ft 289 kts 67°
2026-04-21 16:05 -2.80790 -57.42260 11240 ft 296 kts 67°
2026-04-21 16:06 -2.79981 -57.40327 10842 ft 303 kts 67°
2026-04-21 16:06 -2.79182 -57.38409 10454 ft 301 kts 67°
2026-04-21 16:06 -2.78376 -57.36475 10105 ft 295 kts 67°
2026-04-21 16:06 -2.77604 -57.34631 9941 ft 283 kts 67°
2026-04-21 16:07 -2.76864 -57.32863 9766 ft 273 kts 67°
2026-04-21 16:07 -2.76127 -57.31112 9357 ft 272 kts 67°
2026-04-21 16:07 -2.75395 -57.29374 9021 ft 269 kts 67°
2026-04-21 16:07 -2.74673 -57.27669 8706 ft 265 kts 67°
2026-04-21 16:08 -2.73210 -57.24247 7978 ft 283 kts 67°
2026-04-21 16:08 -2.72273 -57.22456 7576 ft 295 kts 57°
2026-04-21 16:08 -2.71089 -57.20812 7178 ft 293 kts 54°
2026-04-21 16:09 -2.69936 -57.19149 6746 ft 288 kts 60°
2026-04-21 16:09 -2.69019 -57.17358 6298 ft 285 kts 65°
2026-04-21 16:09 -2.68171 -57.15600 5895 ft 282 kts 65°
2026-04-21 16:09 -2.67326 -57.13858 5620 ft 279 kts 65°
2026-04-21 16:10 -2.66477 -57.12111 5361 ft 279 kts 65°
2026-04-21 16:10 -2.65620 -57.10350 5103 ft 278 kts 65°
2026-04-21 16:10 -2.64845 -57.08593 4850 ft 277 kts 74°
2026-04-21 16:10 -2.64727 -57.06699 4595 ft 275 kts 99°
2026-04-21 16:11 -2.65292 -57.04877 4319 ft 274 kts 110°
2026-04-21 16:11 -2.65967 -57.03075 4052 ft 275 kts 110°
2026-04-21 16:11 -2.66625 -57.01309 3798 ft 268 kts 110°
2026-04-21 16:11 -2.67264 -56.99593 3543 ft 260 kts 110°
2026-04-21 16:12 -2.67885 -56.97928 3267 ft 253 kts 110°
2026-04-21 16:12 -2.68482 -56.96319 2995 ft 234 kts 110°
2026-04-21 16:12 -2.69022 -56.94869 2740 ft 216 kts 110°
2026-04-21 16:12 -2.69557 -56.93435 2488 ft 232 kts 110°
2026-04-21 16:13 -2.70132 -56.91895 2229 ft 239 kts 110°
2026-04-21 16:13 -2.70715 -56.90344 1958 ft 228 kts 110°
2026-04-21 16:13 -2.71240 -56.88946 1704 ft 204 kts 110°
2026-04-21 16:13 -2.71712 -56.87695 1493 ft 180 kts 110°
2026-04-21 16:14 -2.72131 -56.86587 1459 ft 164 kts 110°
2026-04-21 16:14 -2.72532 -56.85535 1447 ft 161 kts 110°
2026-04-21 16:14 -2.72932 -56.84489 1482 ft 160 kts 109°
2026-04-21 16:14 -2.73143 -56.83467 1709 ft 160 kts 86°
2026-04-21 16:15 -2.72642 -56.82480 1648 ft 170 kts 44°
2026-04-21 16:15 -2.71619 -56.81839 1160 ft 169 kts 31°
2026-04-21 16:15 -2.70674 -56.81202 828 ft 153 kts 39°
2026-04-21 16:15 -2.69960 -56.80500 671 ft 135 kts 49°
2026-04-21 16:16 -2.69330 -56.79826 527 ft 134 kts 46°
2026-04-21 16:16 -2.68668 -56.79132 359 ft 138 kts 46°
2026-04-21 16:16 -2.68023 -56.78458 108 ft 129 kts 46°
2026-04-21 16:16 -2.67486 -56.77898 73 ft 75 kts 46°
2026-04-21 16:17 -2.67178 -56.77580 72 ft 67 kts 46°
2026-04-21 16:17 -2.66924 -56.77318 70 ft 36 kts 45°
2026-04-21 16:17 -2.66824 -56.77163 70 ft 19 kts 109°
2026-04-21 16:17 -2.66887 -56.77090 69 ft 14 kts 134°
2026-04-21 16:18 -2.66892 -56.77028 69 ft 7 kts 56°
2026-04-21 16:18 -2.66843 -56.76976 69 ft 3 kts 27°
2026-04-21 16:18 -2.66841 -56.76976 69 ft 0 kts